sat.trackr.live / text

‹ back to catalog

AEHF-6 (USA 298)

NORAD 45465 · 2020-022B

PAYLOAD ACTIVE UNKNOWN

§ Identity

Operator
Country
US
Launch date
2020-03-26
Launch site
AFETR
Launch vehicle
Mass (kg)
RCS (m²)

Purposes: comms

External: N2YO · Heavens-Above · Gunter

§ Orbital elements

Epoch: 2026-09-14T21:18:08.114688Z

Period
1,436.12 min
Inclination
2.3625°
Eccentricity
0.0042227
Mean motion
1.00270238 rev/d
Perigee alt
35,609.0 km
Apogee alt
35,965.1 km
Semi-major
42,165.2 km
B*
0.0000e+0
RAAN
302.4882°
Arg perigee
10.9031°
Mean anomaly
137.7462°
Rev number
2,391

§ Raw data

AEHF-6 (USA 298)1 45465U 20022B   26257.88759392 -.00000307  00000+0  00000+0 0  99922 45465   2.3625 302.4882 0042227  10.9031 137.7462  1.00270238 23910

JSON: /api/v1/satellites/45465 · /tle

For live sub-satellite position, see the globe view (requires WebGL).

§ Visibility from observer

Set your observer location to see the next 7 days of passes ≥ 10°. The values pass through the URL so the page stays shareable.

No JS? Fill the form by hand. The geolocation button needs JavaScript.